Home   Weather   Melilla   Past weeks

Flag for Spain Past Weather in Melilla, Melilla, Spain — Yesterday and Last 2 Weeks

Now
88 °F

Warm.


Feels Like: 92 °F
Forecast: 74 / 82 °F
Wind: 8 mph from East

Location: Melilla

Current Time: Jul 24, 2017 at 6:27:49 pm

Latest Report: Jul 24, 2017 at 6:00 pm


Visibility: N/A

Pressure: 29.96 "Hg

Humidity: 54%

Dew Point: 69 °F

Location of MelillaLocation

Past Weather in Melilla — Graph

°F

Melilla Temperature Yesterday

Maximum temperature yesterday: 90 °F (at 4:00 pm)
Minimum temperature yesterday: 74 °F (at 7:00 am)
Average temperature yesterday: 81 °F

High & Low Weather Summary for the Past Weeks

 TemperatureHumidityPressure
High95 °F (Jul 24, 2:00 pm)95% (Jul 13, 4:00 am)30.08 "Hg (Jul 13, 4:00 am)
Low71 °F (Jul 11, 7:00 am)16% (Jul 24, 1:00 pm)29.85 "Hg (Jul 20, 8:00 pm)
Average79 °F68%29.97 "Hg
* Reported Jul 9 4:00 pm — Jul 24 4:00 pm, Melilla. Weather by CustomWeather, © 2017

Note: Actual official high and low records may vary slightly from our data, if they occured in-between our weather recording intervals... More about our weather records

Advertising

Melilla Weather History for the Previous 24 Hours

Scroll right to see more
 ConditionsComfort  
Time TempWeatherWind HumidityBarometerVisibility
4:00 pm
Mon, Jul 24
90 °FHot.8 mph42%29.98 "HgN/A
3:00 pm92 °FHot.6 mph35%29.99 "HgN/A
2:00 pm95 °FSunny.5 mph31%30.00 "Hg19 mi
1:00 pm95 °FExtremely hot.7 mph16%30.02 "HgN/A
12:00 pm93 °FExtremely hot.5 mph19%30.03 "HgN/A
11:00 am90 °FSunny.3 mph23%30.04 "Hg19 mi
10:00 am87 °FPleasantly warm.6 mph28%30.03 "HgN/A
9:00 am86 °FPleasantly warm.9 mph27%30.03 "HgN/A
8:00 am83 °FSunny.12 mph30%30.01 "Hg19 mi
7:00 am74 °FMild.2 mph49%30.02 "HgN/A
6:00 am74 °FMild.1 mph55%30.02 "HgN/A
5:00 am74 °FMild.2 mph47%30.02 "HgN/A
4:00 am74 °FMild.2 mph60%30.03 "HgN/A
3:00 am75 °FMild.2 mph65%30.04 "HgN/A
2:00 am76 °FMild.1 mph63%30.05 "HgN/A
1:00 am76 °FMild.1 mph65%30.06 "HgN/A
12:00 am77 °FMild.3 mph65%30.04 "HgN/A
11:00 pm
Sun, Jul 23
78 °FClear.2 mph64%30.04 "Hg19 mi
10:00 pm78 °FWarm.5 mph62%30.03 "HgN/A
9:00 pm79 °FWarm.2 mph55%30.02 "HgN/A
8:00 pm80 °FOvercast.5 mph52%30.02 "Hg22 mi
7:00 pm83 °FWarm.8 mph49%30.02 "HgN/A
6:00 pm90 °FHot.5 mph25%30.02 "HgN/A
Weather by CustomWeather, © 2017

See weather overviewHow to use our weather pages